Location: Lima
(44.6384°N, 112.5920°W)
Time: 19:09:47
(UTC+00:00)

BEESAT - Visible Passes

Search period start: 22 April 2024 00:00
Search period end: 02 May 2024 00:00
Orbit: 693 x 702 km, 98.5° (Epoch: 21 April)

Date Brightness Start Highest point End Pass type
(mag) Time Alt. Az. Time Alt. Az. Time Alt. Az.
22 Apr ? 05:14:50 10° NNE 05:18:02 37° NE 05:18:02 37° NE visible
22 Apr ? 06:53:14 10° NNW 06:56:41 21° WNW 06:56:50 21° WNW visible
23 Apr ? 04:20:06 10° ENE 04:21:06 13° ENE 04:21:06 13° ENE visible
23 Apr ? 05:56:00 10° N 05:59:54 55° NNW 05:59:54 55° NNW visible
24 Apr ? 04:59:55 10° NNE 05:02:57 29° ENE 05:02:57 29° ENE visible
24 Apr ? 06:37:45 10° N 06:41:44 28° WNW 06:41:45 28° WNW visible
25 Apr ? 05:40:51 10° NNE 05:44:48 62° NNE 05:44:48 62° NNE visible
25 Apr ? 07:20:33 10° NNW 07:22:31 13° WNW 07:23:35 12° WNW visible
26 Apr ? 04:45:07 10° NE 04:47:51 23° ENE 04:47:51 23° ENE visible
26 Apr ? 06:22:21 10° N 06:26:38 38° WNW 06:26:38 38° WNW visible
27 Apr ? 05:25:45 10° NNE 05:29:40 53° ENE 05:29:40 53° ENE visible
27 Apr ? 07:04:34 10° NNW 07:07:34 17° WNW 07:08:27 16° WNW visible
28 Apr ? 04:30:29 10° NE 04:32:42 17° ENE 04:32:42 17° ENE visible
28 Apr ? 06:07:02 10° N 06:11:28 52° WNW 06:11:28 52° WNW visible
29 Apr ? 05:10:42 10° NNE 05:14:30 40° ENE 05:14:30 40° ENE visible
29 Apr ? 06:48:54 10° NNW 06:52:33 23° WNW 06:53:17 22° WNW visible
30 Apr ? 04:16:16 10° ENE 04:17:30 12° ENE 04:17:30 12° ENE visible
30 Apr ? 05:51:45 10° N 05:56:17 73° NW 05:56:17 73° NW visible
30 Apr ? 07:32:53 10° NW 07:33:14 10° NW 07:33:35 10° WNW visible
01 May ? 04:55:44 10° NNE 04:59:18 30° E 04:59:18 30° E visible
01 May ? 06:33:21 10° N 06:37:29 31° WNW 06:38:05 30° W visible
